Simultaneous Nadir Overpasses (SNOs) Predictions

Prediction of SNOs between GOES-15 and NOAA-20 Satellite Orbit:

Table of predicted SNOs for the next 14.0 days since TLE Epoch: 5/25/2024
Index Date Time (GOES-15) GOES-15 Lat,Lon NOAA-20 Lat,Lon Distance(km) Time Diff (sec)
1 05/25/2024 21:24:52 -0.01, 61.69 0.42, 59.75 221.04 80
2 05/26/2024 21:08:45 0.01, 61.67 -0.56, 64.29 298.32 80
3 05/28/2024 09:27:58 0.02, 61.62 -0.57, 58.99 299.96 80
4 05/29/2024 09:11:50 0.00, 61.61 0.42, 63.53 219.26 80
5 05/30/2024 21:30:56 -0.03, 61.61 0.70, 58.26 381.27 80
6 05/31/2024 21:14:48 -0.01, 61.60 -0.30, 62.81 137.91 80
7 06/02/2024 09:34:01 0.04, 61.55 -0.88, 57.51 460.70 80
8 06/03/2024 09:17:53 0.03, 61.54 0.12, 62.06 58.23 80
9 06/05/2024 21:18:11 -0.05, 61.54 -0.01, 61.33 24.77 80
10 06/06/2024 21:02:03 -0.04, 61.54 -1.01, 65.87 493.64 80
